CW4829 Weather Reports


Display with metric or nautical units.
time (UTC)temp
F
wind
direction
speed
MPH
gust
MPH
rain 1hr
in
rain 24hr
in
rain mn
in
humidity
%
barometer
mb
20260901162537 81 126 1.0 3.0 0.00 0.00 0.00 82 1015.9
20260901162047 81 207 0.0 4.0 0.00 0.00 0.00 83 1015.9
20260901161552 81 207 0.0 4.0 0.00 0.00 0.00 83 1015.9
20260901161022 80 126 1.0 3.0 0.00 0.00 0.00 83 1015.9
20260901160534 80 126 2.0 3.0 0.00 0.00 0.00 83 1015.9
20260901160059 80 126 0.0 4.0 0.00 0.00 0.00 84 1015.9
20260901155022 80 112 1.0 4.0 0.00 0.00 0.00 84 1015.9
20260901154604 79 121 0.0 5.0 0.00 0.00 0.00 84 1015.9
20260901154021 79 114 2.0 5.0 0.00 0.00 0.00 84 1015.9
20260901153532 79 128 2.0 3.0 0.00 0.00 0.00 84 1015.9
20260901153032 79 113 2.0 3.0 0.00 0.00 0.00 83 1015.9
20260901152556 79 119 1.0 3.0 0.00 0.00 0.00 82 1016.5
20260901152104 79 119 1.0 3.0 0.00 0.00 0.00 82 1016.5
20260901151045 80 27 1.0 6.0 0.00 0.00 0.00 80 1016.4
20260901150600 80 350 1.0 4.0 0.00 0.00 0.00 80 1016.4
20260901150117 80 350 2.0 4.0 0.00 0.00 0.00 80 1016.4
20260901145544 80 342 3.0 4.0 0.00 0.00 0.00 79 1015.5
20260901145052 80 351 2.0 6.0 0.00 0.00 0.00 79 1015.5
20260901144613 80 217 1.0 6.0 0.00 0.00 0.00 79 1015.5
20260901144036 80 207 2.0 6.0 0.00 0.00 0.00 79 1015.4
20260901143554 80 188 2.0 8.0 0.00 0.00 0.00 79 1015.4
20260901142530 81 215 3.0 7.0 0.00 0.00 0.00 79 1015.4
20260901142038 81 184 3.0 7.0 0.00 0.00 0.00 79 1015.4
20260901141036 81 159 2.0 7.0 0.00 0.00 0.00 79 1015.3
20260901140521 81 173 3.0 7.0 0.00 0.00 0.00 79 1015.3
20260901140057 81 247 3.0 7.0 0.00 0.00 0.00 79 1015.3
20260901135038 81 272 2.0 12.0 0.00 0.00 0.00 80 1015.0
20260901134557 81 234 4.0 12.0 0.00 0.00 0.00 80 1015.0
20260901133534 80 198 4.0 9.0 0.00 0.00 0.00 82 1014.9
20260901132525 80 186 2.0 8.0 0.00 0.00 0.00 83 1015.0
20260901132051 79 176 2.0 8.0 0.00 0.00 0.00 84 1015.0
20260901131043 78 176 2.0 8.0 0.00 0.00 0.00 84 1015.3
20260901130536 78 184 2.0 8.0 0.00 0.00 0.00 84 1015.3
20260901130035 78 239 1.0 6.0 0.00 0.00 0.00 84 1015.3
20260901125555 78 180 3.0 6.0 0.00 0.00 0.00 84 1015.4
20260901124525 78 161 2.0 8.0 0.00 0.00 0.00 85 1015.4
20260901124113 78 163 2.0 8.0 0.00 0.00 0.00 86 1015.4
20260901123616 77 190 1.0 6.0 0.00 0.00 0.00 86 1015.4
20260901123020 77 205 2.0 6.0 0.00 0.00 0.00 86 1015.4
20260901122537 77 269 2.0 6.0 0.00 0.00 0.00 86 1015.4
20260901122049 77 181 2.0 4.0 0.00 0.00 0.00 87 1015.4
20260901121027 77 202 1.0 4.0 0.00 0.00 0.00 87 1015.3
20260901120543 76 221 2.0 4.0 0.00 0.00 0.00 87 1015.3
20260901120054 76 186 1.0 4.0 0.00 0.00 0.00 87 1015.3
20260901115536 76 186 1.0 3.0 0.00 0.00 0.00 87 1014.9
20260901114534 76 186 0.0 3.0 0.00 0.00 0.00 87 1014.9
20260901113520 76 186 1.0 4.0 0.00 0.00 0.00 87 1014.9
20260901113038 76 261 1.0 5.0 0.00 0.00 0.00 87 1014.9
20260901112600 76 207 1.0 5.0 0.00 0.00 0.00 87 1014.8
20260901112043 76 196 1.0 4.0 0.00 0.00 0.00 87 1014.8
20260901111025 76 184 2.0 4.0 0.00 0.00 0.00 87 1014.7
20260901110529 76 200 1.0 4.0 0.00 0.00 0.00 87 1014.7
20260901110059 76 200 1.0 3.0 0.00 0.00 0.00 87 1014.7
20260901105024 76 200 1.0 4.0 0.00 0.00 0.00 87 1014.6
20260901104555 76 200 1.0 5.0 0.00 0.00 0.00 87 1014.6
20260901104113 76 200 1.0 5.0 0.00 0.00 0.00 87 1014.5
20260901103540 76 193 1.0 4.0 0.00 0.00 0.00 87 1014.5
20260901103047 76 193 1.0 5.0 0.00 0.00 0.00 87 1014.5
20260901102031 76 194 1.0 4.0 0.00 0.00 0.00 87 1014.4
20260901101544 76 194 1.0 4.0 0.00 0.00 0.00 87 1014.4
20260901101025 76 207 1.0 4.0 0.00 0.00 0.00 87 1014.4
20260901100546 76 172 1.0 4.0 0.00 0.00 0.00 87 1014.4
20260901095532 76 172 1.0 3.0 0.00 0.00 0.00 87 1014.4
20260901095047 76 172 1.0 3.0 0.00 0.00 0.00 87 1014.4
20260901094021 76 172 1.0 3.0 0.00 0.00 0.00 87 1014.3
20260901093530 76 172 1.0 3.0 0.00 0.00 0.00 87 1014.3
20260901093103 76 172 1.0 3.0 0.00 0.00 0.00 87 1014.3
20260901092037 76 172 1.0 3.0 0.00 0.00 0.00 87 1014.3
20260901091547 77 172 0.0 4.0 0.00 0.00 0.00 87 1014.3
20260901090551 77 172 1.0 3.0 0.00 0.00 0.00 87 1014.2
20260901090047 77 172 0.0 3.0 0.00 0.00 0.00 87 1014.2
20260901085030 76 172 1.0 5.0 0.00 0.00 0.00 87 1014.3
20260901084039 77 195 1.0 3.0 0.00 0.00 0.00 87 1014.3
20260901083551 77 195 1.0 3.0 0.00 0.00 0.00 87 1014.3
20260901082540 77 195 0.0 2.0 0.00 0.00 0.00 86 1014.1
20260901082044 77 195 1.0 3.0 0.00 0.00 0.00 87 1014.1
20260901081613 77 194 0.0 3.0 0.00 0.00 0.00 87 1014.1
20260901081122 76 195 1.0 3.0 0.00 0.00 0.00 87 1014.1
20260901080618 76 195 0.0 3.0 0.00 0.00 0.00 87 1014.1
20260901080113 76 195 1.0 4.0 0.00 0.00 0.00 87 1014.1
20260901075617 76 165 1.0 3.0 0.00 0.00 0.00 87 1014.0
20260901075112 76 186 1.0 2.0 0.00 0.00 0.00 87 1014.0
20260901074021 76 186 1.0 3.0 0.00 0.00 0.00 87 1014.0
20260901073538 76 186 1.0 2.0 0.00 0.00 0.00 87 1014.0
20260901073039 76 186 1.0 2.0 0.00 0.00 0.00 87 1014.0
20260901072543 76 186 1.0 2.0 0.00 0.00 0.00 87 1014.0
20260901071521 76 186 0.0 2.0 0.00 0.00 0.00 86 1014.0
20260901071051 76 186 0.0 2.0 0.00 0.00 0.00 86 1014.1
20260901070556 76 186 0.0 2.0 0.00 0.00 0.00 86 1014.1
20260901070054 77 186 1.0 2.0 0.00 0.00 0.00 86 1014.1
20260901065538 77 186 1.0 2.0 0.00 0.00 0.00 85 1014.1
20260901065047 77 186 1.0 3.0 0.00 0.00 0.00 85 1014.1
20260901064534 77 186 1.0 4.0 0.00 0.00 0.00 85 1014.1
20260901064036 77 186 2.0 4.0 0.00 0.00 0.00 85 1014.1
20260901063554 77 202 1.0 2.0 0.00 0.00 0.00 85 1014.1
20260901063036 77 202 1.0 3.0 0.00 0.00 0.00 85 1014.1
20260901062605 77 202 2.0 3.0 0.00 0.00 0.00 85 1014.0
20260901061541 77 202 1.0 3.0 0.00 0.00 0.00 85 1014.0
20260901061105 77 202 2.0 4.0 0.00 0.00 0.00 85 1013.9
20260901060037 77 184 1.0 3.0 0.00 0.00 0.00 84 1013.9
20260901055529 77 184 0.0 3.0 0.00 0.00 0.00 84 1014.3
20260901055031 77 184 1.0 3.0 0.00 0.00 0.00 84 1014.3
20260901054554 77 184 1.0 3.0 0.00 0.00 0.00 84 1014.3
20260901054101 77 184 0.0 3.0 0.00 0.00 0.00 84 1014.6
20260901053527 77 184 1.0 3.0 0.00 0.00 0.00 84 1014.6
20260901053019 78 184 0.0 1.0 0.00 0.00 0.00 83 1014.6
20260901052545 78 184 0.0 0.0 0.00 0.00 0.00 83 1014.4
20260901052039 78 184 0.0 1.0 0.00 0.00 0.00 82 1014.4
20260901051542 78 184 0.0 1.0 0.00 0.00 0.00 82 1014.4
20260901051044 78 184 0.0 1.0 0.00 0.00 0.00 82 1014.3
20260901050540 78 184 0.0 1.0 0.00 0.00 0.00 81 1014.3
20260901050036 78 184 0.0 1.0 0.00 0.00 0.00 81 1014.3
20260901045530 79 184 0.0 1.0 0.00 0.00 0.00 80 1014.3
20260901045028 79 184 1.0 2.0 0.00 0.00 0.00 80 1014.3
20260901044555 79 184 1.0 2.0 0.00 0.00 0.00 80 1014.3
20260901044052 79 184 0.0 3.0 0.00 0.00 0.00 80 1014.2
20260901043523 79 184 0.0 2.0 0.00 0.00 0.00 80 1014.2
20260901043043 79 184 1.0 3.0 0.00 0.00 0.00 80 1014.2
20260901042541 79 184 1.0 5.0 0.00 0.00 0.00 79 1014.1
20260901042030 79 184 2.0 5.0 0.00 0.00 0.00 79 1014.1
20260901041520 79 192 2.0 3.0 0.00 0.00 0.00 79 1014.1
20260901041035 79 178 0.0 3.0 0.00 0.00 0.00 80 1014.0
20260901040521 79 178 1.0 5.0 0.00 0.00 0.00 80 1014.0
20260901040018 79 178 2.0 5.0 0.00 0.00 0.00 80 1014.0
20260901035546 79 208 0.0 3.0 0.00 0.00 0.00 80 1013.4
20260901034528 79 231 2.0 8.0 0.00 0.00 0.00 80 1013.4
20260901034051 79 205 4.0 9.0 0.00 0.00 0.00 80 1013.4
20260901033612 79 202 3.0 9.0 0.00 0.00 0.00 80 1013.4
20260901033020 79 223 4.0 9.0 0.00 0.00 0.00 80 1013.4
20260901032531 79 202 4.0 7.0 0.00 0.00 0.00 80 1013.8
20260901032038 79 169 4.0 7.0 0.00 0.00 0.00 80 1013.8
20260901031554 79 180 4.0 7.0 0.00 0.00 0.00 81 1013.8
20260901031108 78 178 2.0 7.0 0.00 0.00 0.00 81 1013.5
20260901030034 78 193 4.0 7.0 0.00 0.00 0.00 82 1013.5
20260901025551 77 186 3.0 7.0 0.00 0.00 0.00 83 1014.0
20260901025041 77 178 4.0 8.0 0.00 0.00 0.00 84 1014.0
20260901024028 75 204 3.0 6.0 0.00 0.00 0.00 87 1014.5
20260901023023 75 180 0.0 1.0 0.00 0.00 0.00 86 1014.5
20260901022033 75 180 0.0 0.0 0.00 0.00 0.00 86 1014.9
20260901021545 75 180 0.0 0.0 0.00 0.00 0.00 85 1014.9
20260901020544 75 180 0.0 0.0 0.00 0.00 0.00 85 1014.9
20260901020059 75 180 0.0 0.0 0.00 0.00 0.00 85 1014.9
20260901015626 76 180 0.0 0.0 0.00 0.00 0.00 84 1015.2
20260901014536 76 180 0.0 0.0 0.00 0.00 0.00 83 1015.2
20260901014058 76 180 0.0 0.0 0.00 0.00 0.00 83 1015.4
20260901013624 77 180 0.0 0.0 0.00 0.00 0.00 82 1015.4
20260901012524 77 180 0.0 0.0 0.00 0.00 0.00 80 1015.4
20260901012035 77 180 0.0 0.0 0.00 0.00 0.00 80 1015.4
20260901011548 77 180 0.0 0.0 0.00 0.00 0.00 79 1015.4
20260901011054 78 180 0.0 0.0 0.00 0.00 0.00 79 1015.0
20260901010542 78 180 0.0 0.0 0.00 0.00 0.00 78 1015.0
20260901005540 78 180 0.0 0.0 0.00 0.00 0.00 76 1014.9
20260901005053 79 180 0.0 0.0 0.00 0.00 0.00 76 1014.9
20260901004046 79 180 0.0 0.0 0.00 0.00 0.00 75 1014.7
20260901003024 80 180 0.0 0.0 0.00 0.00 0.00 74 1014.7
20260901002545 80 180 0.0 0.0 0.00 0.00 0.00 74 1014.9
20260901002102 81 180 0.0 0.0 0.00 0.00 0.00 72 1014.9
20260901001548 81 180 0.0 0.0 0.00 0.00 0.00 72 1014.9
20260901001056 81 180 0.0 0.0 0.00 0.00 0.00 72 1014.9
20260901000541 82 180 0.0 0.0 0.00 0.00 0.00 71 1014.9
20260901000109 82 180 0.0 0.0 0.00 0.00 0.00 70 1014.9
20260831235605 83 180 0.0 0.0 0.00 0.00 0.00 69 1014.9
20260831234545 84 180 0.0 0.0 0.00 0.00 0.00 70 1014.9
20260831234050 84 180 0.0 0.0 0.00 0.00 0.00 70 1014.7
20260831233029 84 180 0.0 1.0 0.00 0.00 0.00 68 1014.7
20260831232547 84 180 0.0 1.0 0.00 0.00 0.00 67 1014.8
20260831232104 84 180 0.0 2.0 0.00 0.00 0.00 66 1014.8
20260831231029 84 180 1.0 4.0 0.00 0.00 0.00 65 1014.7
20260831230548 84 180 1.0 4.0 0.00 0.00 0.00 66 1014.7
20260831225524 84 194 0.0 3.0 0.00 0.00 0.00 66 1014.6
20260831225053 85 194 1.0 3.0 0.00 0.00 0.00 66 1014.6
20260831224035 85 194 1.0 3.0 0.00 0.00 0.00 64 1014.5
20260831223553 85 194 1.0 4.0 0.00 0.00 0.00 64 1014.5
20260831223057 85 194 0.0 4.0 0.00 0.00 0.00 63 1014.5
20260831222539 85 190 1.0 3.0 0.00 0.00 0.00 63 1014.4
20260831222110 85 190 1.0 2.0 0.00 0.00 0.00 63 1014.4
20260831221054 85 190 1.0 4.0 0.00 0.00 0.00 63 1014.3
20260831220139 85 190 0.0 4.0 0.00 0.00 0.00 63 1014.3
20260831215541 85 182 1.0 4.0 0.00 0.00 0.00 63 1014.4
20260831215102 85 182 1.0 5.0 0.00 0.00 0.00 63 1014.4
20260831214610 85 182 2.0 5.0 0.00 0.00 0.00 62 1014.4
20260831214114 85 161 1.0 3.0 0.00 0.00 0.00 63 1014.3
20260831213046 85 205 0.0 5.0 0.00 0.00 0.00 64 1014.3
20260831212045 85 202 3.0 6.0 0.00 0.00 0.00 64 1014.4
20260831211604 85 178 2.0 13.0 0.00 0.00 0.00 64 1014.4
20260831211117 85 167 3.0 13.0 0.00 0.00 0.00 64 1014.4
20260831210615 85 288 3.0 8.0 0.00 0.00 0.00 64 1014.4
20260831210109 85 202 3.0 8.0 0.00 0.00 0.00 64 1014.4
20260831205517 85 181 3.0 8.0 0.00 0.00 0.00 65 1014.5
20260831204542 85 193 2.0 7.0 0.00 0.00 0.00 66 1014.5
20260831204017 85 157 2.0 7.0 0.00 0.00 0.00 66 1014.9
20260831203523 85 175 3.0 9.0 0.00 0.00 0.00 67 1014.9
20260831203046 85 213 3.0 7.0 0.00 0.00 0.00 66 1014.9
20260831202602 85 181 2.0 5.0 0.00 0.00 0.00 66 1014.9
20260831202102 85 231 1.0 5.0 0.00 0.00 0.00 66 1014.9
20260831201602 85 310 2.0 7.0 0.00 0.00 0.00 66 1014.9
20260831201110 86 176 3.0 7.0 0.00 0.00 0.00 66 1015.0
20260831200520 86 151 2.0 7.0 0.00 0.00 0.00 66 1015.0
20260831200030 86 167 2.0 6.0 0.00 0.00 0.00 65 1015.0
20260831195602 85 133 2.0 6.0 0.00 0.00 0.00 65 1015.3
20260831194519 85 182 3.0 6.0 0.00 0.00 0.00 64 1015.3
20260831194050 86 349 1.0 6.0 0.00 0.00 0.00 63 1015.4
20260831193606 86 199 2.0 8.0 0.00 0.00 0.00 62 1015.4
20260831193130 86 180 2.0 7.0 0.00 0.00 0.00 62 1015.4
20260831192016 86 187 3.0 8.0 0.00 0.00 0.00 63 1015.5
20260831191543 87 198 2.0 6.0 0.00 0.00 0.00 64 1015.5
20260831191053 87 213 3.0 7.0 0.00 0.00 0.00 64 1015.5
20260831190539 87 254 3.0 7.0 0.00 0.00 0.00 63 1015.5
20260831190045 87 205 3.0 8.0 0.00 0.00 0.00 63 1015.5
20260831185045 86 317 3.0 8.0 0.00 0.00 0.00 64 1015.9
20260831184548 87 302 4.0 8.0 0.00 0.00 0.00 62 1015.9
20260831184045 87 235 2.0 7.0 0.00 0.00 0.00 63 1016.0
20260831183558 87 297 3.0 7.0 0.00 0.00 0.00 63 1016.0
20260831182520 86 284 3.0 8.0 0.00 0.00 0.00 62 1016.1
20260831182110 86 294 4.0 11.0 0.00 0.00 0.00 62 1016.1
20260831181608 86 175 4.0 11.0 0.00 0.00 0.00 62 1016.1
20260831181107 86 218 3.0 8.0 0.00 0.00 0.00 64 1016.3
20260831180613 86 170 3.0 8.0 0.00 0.00 0.00 64 1016.3
20260831175549 86 261 4.0 8.0 0.00 0.00 0.00 65 1016.4
20260831174532 86 229 2.0 6.0 0.00 0.00 0.00 65 1016.4
20260831174055 86 185 3.0 6.0 0.00 0.00 0.00 65 1016.5
20260831173039 86 215 3.0 9.0 0.00 0.00 0.00 65 1016.5
20260831172553 86 298 3.0 9.0 0.00 0.00 0.00 66 1016.5
20260831171547 85 311 3.0 12.0 0.00 0.00 0.00 65 1016.5
20260831170544 85 249 4.0 8.0 0.00 0.00 0.00 65 1016.6
20260831165524 86 227 3.0 7.0 0.00 0.00 0.00 65 1016.6
20260831165046 86 165 3.0 7.0 0.00 0.00 0.00 67 1016.6
20260831164556 86 360 2.0 6.0 0.00 0.00 0.00 66 1016.6
20260831164119 86 188 3.0 7.0 0.00 0.00 0.00 66 1016.6